Starlink 6321

operational
NORAD ID: 57340 Int'l Des: 2023-099 Owner: SPXS Country: US Constellation: starlink
LEOCIRCULAR

About Starlink 6321

Description loading...

Live Position

Loading 3D Globe...

Upcoming Passes

Altitude History

Altitude vs Time

uPlot chart will show altitude changes over time

Two-Line Element Set

1 57340U 23099N 25314.33498137 .00001687 00000-0 13991-3 0 9993
2 57340 43.0033 177.4161 0001199 272.4026 87.6679 15.02535711128165
Epoch: Nov 10, 2025 • Age: 30 hours

Current Status

Altitude 567.9 km
Velocity 7.58 km/s
Sub-Earth Point -33.55°S, 137.82°E
Launch Date Jul 16, 2023
Age 2.3 years
Type internet

Technical Details

Classification Payload
Mass 305.00 kg
Dry Mass 290.00 kg
Total Mass 305.00 kg
Length 0.20 m
Diameter 2.80 m
Span 9.00 m
Shape Box + pan
Manufacturer SPXS
Bus Type Starlink
Phase Status In Orbit
Owner/State SPXS/US

Large Constellations

Loading constellations...